Regional Weather Roundup
Issued by NWS Burlington, VT

Current Version | Previous Version | Graphics & Text | Print | Product List | Glossary Off
Versions: 1 2 3 4 5 6 7 8 9 10 11 12 13 14 15 16 17 18 19 20 21 22 23 24 25 26 27 28 29 30 31 32 33 34 35 36 37 38 39 40 41 42 43 44 45 46 47 48 49 50

000
ASUS41 KBTV 281710
RWRBTV
VERMONT REGIONAL WEATHER ROUNDUP
NATIONAL WEATHER SERVICE BURLINGTON VT
100 PM EDT TUE MAR 28 2017

NOTE: "FAIR" INDICATES FEW OR NO CLOUDS BELOW 12,000 FEET WITH NO
SIGNIFICANT WEATHER AND/OR OBSTRUCTIONS TO VISIBILITY.

* THESE REPORTS ARE NOT UNDER NWS QUALITY CONTROL AND/OR DO NOT
  REPORT WEATHER SUCH AS PRECIPITATION AND FOG.

VTZ001>019-281800-
_____VERMONT_____


CITY           SKY/WX    TMP DP  RH WIND       PRES   REMARKS
BURLINGTON     CLOUDY    51  44  77 S8        29.88S
MONTPELIER     PTSUNNY   43  39  86 S12       29.94
MORRISVILLE    CLOUDY    48  32  53 CALM      29.90F
ST. JOHNSBURY*   N/A     42  38  85 MISG      29.92F
LYNDONVILLE*   CLOUDY    38  37  98 SE8       29.94F FOG
MIDDLEBURY*    CLOUDY    50  44  79 CALM      29.89F
RUTLAND*       PTSUNNY   51  43  74 SE9       29.90F
SPRINGFIELD    CLOUDY    41  36  82 CALM      29.96F
HIGHGATE*      DRIZZLE   41  41  99 NW3       29.91S
NEWPORT*       CLOUDY    42  37  82 S8        29.90S
BENNINGTON     CLOUDY    54  45  71 NW5       29.90F
SUTTON*          N/A     39 N/A N/A MISG        N/A

_____LAKE CHAMPLAIN_____


CITY           SKY/WX    TMP DP  RH WIND       PRES   REMARKS
BURTON ISLAND*   N/A     39  39 100 N1          N/A
COLCHESTER RF*   N/A     43  41  93 SW12        N/A
DIAMOND ISL*     N/A     46  43  87 SW10        N/A

$$

NYZ007-026>031-035-052-083-087-281800-
_____NORTHERN NEW YORK_____


CITY           SKY/WX    TMP DP  RH WIND       PRES   REMARKS
PLATTSBURGH    LGT RAIN  42  39  89 N10       29.89S FOG
SARANAC LAKE   CLOUDY    48  48 100 W5        29.86F
MASSENA        CLOUDY    37  37 100 W3        29.97R FOG
POTSDAM*       LGT RAIN  37  37 100 CALM      29.96R
WATERTOWN      FOG       41  41 100 N8        29.95R VSB 1
FT DRUM        MIX PCPN  40  38  95 N6        29.93S FOG
ALBANY         LGT RAIN  49  43  80 S7        29.93F
GLENS FALLS    CLOUDY    50  44  80 SW7       29.91F

$$
NHZ002-005-011-281800-
_____NEW HAMPSHIRE_____


CITY           SKY/WX    TMP DP  RH WIND       PRES   REMARKS
LEBANON        CLOUDY    40  36  86 NE8       29.96F
KEENE          CLOUDY    43  38  82 CALM      29.97F
MT WASHINGTON  FOG       36  36 100 W33         N/A  VSB 0   WCI  22
PLYMOUTH       CLOUDY    35  34  94 E3        30.01S FOG
WHITEFIELD     CLOUDY    45  35  68 W6        29.92F

$$

_____REGIONAL QUEBEC LOCATIONS_____


CITY           SKY/WX    TMP DP  RH WIND       PRES   REMARKS
MONTREAL       DRIZZLE   37  36  93 N6        29.94R FOG
QUEBEC CITY    LGT RAIN  32  30  93 E6        29.94F FOG     WCI  26
SHERBROOKE     LGT RAIN  39  39 100 W2        29.88S VSB 3/4

_____REGIONAL ONTARIO LOCATIONS_____


CITY           SKY/WX    TMP DP  RH WIND       PRES   REMARKS
OTTAWA         CLOUDY    39  37  93 NW13      29.96R WCI  32

______KEY______
VSB  - VISIBILITY IN MILES
WCI  - WIND CHILL INDEX
HX   - HEAT INDEX
$$
NNNN



USA.gov is the U.S. government's official web portal to all federal, state and local government web resources and services.